Date String (YYYY-MM-DD hh:mm:ss) UTC,Instrument flags,absolute air pressure of the measurement (hPa),sample flow rate (lpm),inlet stack bypass flow (lpm),air temperature of the measurement (°C),ambient temperature measured by the external sensor (°C),aerosol sample conditioner tube jacket temperature (°C),OPC LED temperature (°C),internal box temperature (°C),relative humidity of the measurement (%),span deviation,mass concentration of particles derived from Lorenz-Mie calculation of OPC scattering (μg/m³),mass concentration of particles derived from Lorenz-Mie calculation of OPC scattering (μg/m³),mass concentration of particles derived from Lorenz-Mie calculation of OPC scattering (μg/m³)
DateTimeUTC,F1_M11,P_M11,Q1_M11,Q2_M11,T1_M11,T2_M11,T3_M11,T4_M11,T5_M11,U1_M11,ZSPAN_M11,X0_M11,X2_M11,X1_M11
2023-08-11 18:00:00,SystemResetWarning,0831.3,5.01,000.00,028.6,026.6,000.0,036.9,030.3,23.2,0000.0,0009.06,0004.15,0003.57
2023-08-11 18:01:00,SystemResetWarning,0831.2,5.00,000.00,028.6,026.9,000.0,036.9,030.3,22.6,0000.0,0009.34,0004.15,0003.58
2023-08-11 18:02:00,SystemResetWarning,0831.2,5.00,000.00,028.7,027.2,000.0,036.9,030.5,22.7,0000.0,0009.31,0004.15,0003.59
2023-08-11 18:03:00,SystemResetWarning,0831.2,4.99,000.00,028.7,027.2,000.0,036.9,030.5,22.8,0000.0,0009.29,0004.14,0003.59
2023-08-11 18:04:00,SystemResetWarning,0831.2,5.00,000.00,028.7,025.9,000.0,036.8,030.1,22.0,0000.0,0008.84,0004.16,0003.59
2023-08-11 18:05:00,SystemResetWarning,0831.1,5.01,000.00,028.6,025.0,000.0,036.8,029.9,22.2,0000.0,0008.57,0004.21,0003.60
2023-08-11 18:06:00,SystemResetWarning,0831.1,5.01,000.00,028.6,025.3,000.0,036.8,029.9,22.9,0000.0,0008.59,0004.25,0003.61
2023-08-11 18:07:00,SystemResetWarning,0831.1,5.00,000.00,028.5,025.6,000.0,036.8,029.9,23.3,0000.0,0008.77,0004.23,0003.61
2023-08-11 18:08:00,SystemResetWarning,0831.1,5.00,000.00,028.5,026.1,000.0,036.8,030.1,22.4,0000.0,0008.86,0004.19,0003.60
2023-08-11 18:09:00,SystemResetWarning,0831.1,5.00,000.00,028.6,026.5,000.0,036.9,030.2,22.2,0000.0,0008.73,0004.17,0003.61
2023-08-11 18:10:00,SystemResetWarning,0831.1,5.01,000.00,028.6,026.8,000.0,036.9,030.3,22.0,0000.0,0008.67,0004.17,0003.60
2023-08-11 18:11:00,SystemResetWarning,0831.2,4.99,000.00,028.7,027.1,000.0,036.9,030.4,22.4,0000.0,0009.00,0004.16,0003.60
2023-08-11 18:12:00,SystemResetWarning,0831.1,4.98,000.00,028.7,026.6,000.0,036.9,030.3,22.9,0000.0,0008.72,0004.15,0003.59
2023-08-11 18:13:00,SystemResetWarning,0831.1,5.01,000.00,028.6,025.1,000.0,036.8,030.0,22.5,0000.0,0008.75,0004.17,0003.59
2023-08-11 18:14:00,SystemResetWarning,0831.0,5.01,000.00,028.6,025.0,000.0,036.7,029.9,22.3,0000.0,0008.77,0004.16,0003.58
2023-08-11 18:15:00,SystemResetWarning,0831.1,5.00,000.00,028.5,025.4,000.0,036.7,030.0,22.7,0000.0,0008.65,0004.12,0003.58
2023-08-11 18:16:00,SystemResetWarning,0831.1,5.00,000.00,028.5,025.8,000.0,036.8,030.0,22.0,0000.0,0008.62,0004.08,0003.58
2023-08-11 18:17:00,SystemResetWarning,0831.1,5.00,000.00,028.5,026.2,000.0,036.8,030.2,21.2,0000.0,0008.53,0004.04,0003.58
2023-08-11 18:18:00,SystemResetWarning,0831.1,5.00,000.00,028.6,026.6,000.0,036.9,030.3,21.2,0000.0,0008.32,0004.03,0003.58
2023-08-11 18:19:00,SystemResetWarning,0831.1,5.00,000.00,028.6,026.9,000.0,036.9,030.4,20.9,0000.0,0007.91,0004.04,0003.58
2023-08-11 18:20:00,SystemResetWarning,0831.1,4.99,000.00,028.7,027.0,000.0,036.9,030.4,21.3,0000.0,0008.16,0004.03,0003.58
2023-08-11 18:21:00,SystemResetWarning,0831.0,4.99,000.00,028.7,025.9,000.0,036.8,030.2,21.1,0000.0,0008.29,0004.04,0003.59
2023-08-11 18:22:00,SystemResetWarning,0830.9,5.01,000.00,028.6,024.9,000.0,036.7,030.0,21.2,0000.0,0007.71,0004.01,0003.59
2023-08-11 18:23:00,SystemResetWarning,0830.9,5.01,000.00,028.5,025.2,000.0,036.7,029.9,21.3,0000.0,0008.36,0004.02,0003.60
2023-08-11 18:24:00,SystemResetWarning,0830.9,5.00,000.00,028.5,025.6,000.0,036.7,030.0,21.6,0000.0,0008.39,0004.02,0003.60
2023-08-11 18:25:00,SystemResetWarning,0830.9,5.00,000.00,028.5,026.0,000.0,036.8,030.0,21.6,0000.0,0008.37,0004.01,0003.61
2023-08-11 18:26:00,SystemResetWarning,0831.0,5.00,000.00,028.5,026.4,000.0,036.8,030.2,21.7,0000.0,0008.41,0004.02,0003.60
2023-08-11 18:27:00,SystemResetWarning,0830.9,5.00,000.00,028.6,026.8,000.0,036.9,030.3,22.3,0000.0,0008.33,0004.02,0003.59
2023-08-11 18:28:00,SystemResetWarning,0831.0,4.99,000.00,028.6,027.1,000.0,036.9,030.4,22.0,0000.0,0008.38,0004.04,0003.58
2023-08-11 18:29:00,SystemResetWarning,0831.1,4.98,000.00,028.7,027.2,000.0,036.9,030.5,21.8,0000.0,0008.32,0004.03,0003.58
2023-08-11 18:30:00,SystemResetWarning,0831.0,5.01,000.00,028.7,026.1,000.0,036.8,030.1,21.7,0000.0,0008.21,0004.01,0003.58
2023-08-11 18:31:00,SystemResetWarning,0831.0,4.99,000.00,028.6,025.0,000.0,036.7,029.9,22.3,0000.0,0007.81,0003.99,0003.59
2023-08-11 18:32:00,SystemResetWarning,0831.0,5.01,000.00,028.6,025.2,000.0,036.7,029.9,22.1,0000.0,0007.78,0003.99,0003.58
2023-08-11 18:33:00,SystemResetWarning,0830.9,5.01,000.00,028.5,025.6,000.0,036.8,029.9,22.1,0000.0,0007.85,0004.06,0003.59
2023-08-11 18:34:00,SystemResetWarning,0830.9,5.00,000.00,028.5,026.0,000.0,036.8,030.0,22.3,0000.0,0007.10,0004.12,0003.59
2023-08-11 18:35:00,SystemResetWarning,0830.9,5.00,000.00,028.5,026.4,000.0,036.8,030.2,22.0,0000.0,0006.98,0004.14,0003.59
2023-08-11 18:36:00,SystemResetWarning,0830.9,5.00,000.00,028.6,026.7,000.0,036.9,030.3,21.9,0000.0,0006.90,0004.13,0003.59
2023-08-11 18:37:00,SystemResetWarning,0830.9,5.00,000.00,028.7,027.1,000.0,036.9,030.5,21.4,0000.0,0006.81,0004.12,0003.59
2023-08-11 18:38:00,SystemResetWarning,0831.0,4.99,000.00,028.7,026.7,000.0,036.9,030.4,21.7,0000.0,0007.16,0004.14,0003.60
2023-08-11 18:39:00,SystemResetWarning,0830.9,4.99,000.00,028.6,025.2,000.0,036.8,030.0,22.4,0000.0,0007.73,0004.11,0003.59
2023-08-11 18:40:00,SystemResetWarning,0830.9,5.02,000.00,028.6,024.9,000.0,036.7,029.9,22.1,0000.0,0008.84,0004.11,0003.59
2023-08-11 18:41:00,SystemResetWarning,0830.9,5.00,000.00,028.5,025.3,000.0,036.7,029.9,22.4,0000.0,0009.39,0004.14,0003.59
2023-08-11 18:42:00,SystemResetWarning,0830.9,5.00,000.00,028.5,025.7,000.0,036.8,030.0,22.4,0000.0,0009.96,0004.17,0003.59
2023-08-11 18:43:00,SystemResetWarning,0830.9,5.00,000.00,028.5,026.1,000.0,036.8,030.1,22.3,0000.0,0010.00,0004.19,0003.60
2023-08-11 18:44:00,SystemResetWarning,0830.9,5.00,000.00,028.6,026.5,000.0,036.8,030.2,22.1,0000.0,0009.87,0004.17,0003.60
2023-08-11 18:45:00,SystemResetWarning,0830.9,5.00,000.00,028.6,026.9,000.0,036.9,030.4,22.1,0000.0,0009.87,0004.16,0003.61
2023-08-11 18:46:00,SystemResetWarning,0831.0,5.00,000.00,028.7,027.2,000.0,036.9,030.5,21.8,0000.0,0009.87,0004.15,0003.62
2023-08-11 18:47:00,SystemResetWarning,0830.9,4.98,000.00,028.7,026.9,000.0,036.9,030.4,22.7,0000.0,0010.02,0004.18,0003.63
2023-08-11 18:48:00,SystemResetWarning,0830.9,4.99,000.00,028.7,025.3,000.0,036.8,030.1,22.3,0000.0,0010.05,0004.18,0003.64
2023-08-11 18:49:00,SystemResetWarning,0830.9,5.02,000.00,028.6,024.8,000.0,036.7,029.9,22.3,0000.0,0009.92,0004.17,0003.66
2023-08-11 18:50:00,SystemResetWarning,0830.9,5.00,000.00,028.5,025.2,000.0,036.7,030.0,22.4,0000.0,0009.32,0004.19,0003.67
2023-08-11 18:51:00,SystemResetWarning,0830.9,5.00,000.00,028.5,025.6,000.0,036.8,030.0,21.7,0000.0,0008.81,0004.23,0003.70
2023-08-11 18:52:00,SystemResetWarning,0830.9,5.00,000.00,028.5,026.0,000.0,036.8,030.1,22.3,0000.0,0007.98,0004.27,0003.71
2023-08-11 18:53:00,SystemResetWarning,0830.9,5.00,000.00,028.6,026.4,000.0,036.8,030.2,21.5,0000.0,0007.63,0004.25,0003.71
2023-08-11 18:54:00,SystemResetWarning,0831.0,5.00,000.00,028.6,026.8,000.0,036.9,030.4,21.9,0000.0,0007.43,0004.24,0003.71
2023-08-11 18:55:00,SystemResetWarning,0830.9,5.00,000.00,028.7,027.1,000.0,036.9,030.5,21.4,0000.0,0007.45,0004.23,0003.72
2023-08-11 18:56:00,SystemResetWarning,0830.9,4.99,000.00,028.7,026.9,000.0,036.9,030.4,21.3,0000.0,0007.53,0004.24,0003.72
2023-08-11 18:57:00,SystemResetWarning,0830.9,4.99,000.00,028.6,025.3,000.0,036.8,030.0,21.3,0000.0,0007.55,0004.23,0003.71
2023-08-11 18:58:00,SystemResetWarning,0830.9,5.02,000.00,028.6,024.7,000.0,036.7,029.9,21.6,0000.0,0008.12,0004.21,0003.71
2023-08-11 18:59:00,SystemResetWarning,0830.9,5.00,000.00,028.5,025.1,000.0,036.7,029.9,22.3,0000.0,0009.02,0004.24,0003.70
